This demonstration page uses our WeatherBlox Daily Observations layout. Learn more.

41.55636, -103.73856

Hourly Observations for March 6, 2019

Temp ( °F °C ) Dew Point ( °F °C ) Humidity (%) Winds ( mph kmh ) Pressure ( in mb ) Visibility ( mi km ) Precip ( " mm )
12:58 am 00:58 Clear 19 -7 12 -10.9 74 74 SW 17 28 30.42 1030 10 16.0934 0 0
1:58 am 01:58 Mostly Cloudy 19 -7.4 12 -10.9 76 76 SSW 17 28 30.41 1030 8 12.87472 0 0
2:58 am 02:58 Clear 18 -8 12 -11.1 79 79 SSW 14 22 30.37 1028 8 12.87472 0 0
3:58 am 03:58 Mostly Clear 16 -9 11 -11.7 81 81 S 12 19 30.36 1028 7 11.26538 0 0
4:58 am 04:58 Clear with Mist and Fog 13 -10.7 9 -12.8 85 85 S 12 19 30.35 1028 5 8.0467 0 0
5:58 am 05:58 Partly Cloudy 14 -9.8 11 -11.9 85 85 S 9 15 30.31 1026 8 12.87472 0 0
6:58 am 06:58 Cloudy 17 -8.5 12 -10.9 83 83 S 12 19 30.26 1025 10 16.0934 0 0
7:58 am 07:58 Mostly Cloudy 18 -7.8 14 -10.2 83 83 S 13 20 30.22 1023 10 16.0934 0 0
8:58 am 08:58 Cloudy 19 -7.2 15 -9.7 83 83 SSW 13 20 30.19 1022 10 16.0934 0 0
9:58 am 09:58 Cloudy 22 -5.8 17 -8.2 83 83 SW 6 9 30.14 1021 10 16.0934 0 0
10:58 am 10:58 Mostly Cloudy 24 -4.3 17 -8.2 75 75 SSW 8 13 30.1 1019 10 16.0934 0 0
11:58 am 11:58 Cloudy 26 -3.2 19 -7.2 74 74 WSW 3 6 30.1 1019 10 16.0934 0 0
12:58 pm 12:58 Cloudy 26 -3.1 18 -7.6 71 71 W 3 6 30.11 1020 10 16.0934 0 0
1:58 pm 13:58 Mostly Cloudy 27 -2.8 19 -7 73 73 NE 3 6 30.09 1019 10 16.0934 0 0
2:58 pm 14:58 Mostly Cloudy 29 -1.5 20 -6.4 70 70 Calm 30.1 1019 10 16.0934 0 0
3:58 pm 15:58 Cloudy 31 -0.4 22 -5.4 69 69 Calm 30.12 1020 10 16.0934 0 0
4:58 pm 16:58 Mostly Cloudy 30 -1.3 20 -6.6 68 68 E 6 9 30.13 1020 10 16.0934 0 0
5:58 pm 17:58 Mostly Cloudy 27 -2.6 21 -5.9 78 78 ESE 7 11 30.12 1020 10 16.0934 0 0
6:58 pm 18:58 Mostly Sunny 27 -2.8 20 -6.5 76 76 E 5 7 30.1 1019 10 16.0934 0 0
7:58 pm 19:58 Mostly Cloudy 28 -2.5 22 -5.6 80 80 E 6 9 30.07 1018 10 16.0934 0 0
8:58 pm 20:58 Cloudy 26 -3.2 21 -6.1 81 81 ENE 5 7 30.06 1018 10 16.0934 0 0
9:58 pm 21:58 Mostly Cloudy 27 -2.8 22 -5.6 81 81 ESE 8 13 30.04 1017 10 16.0934 0 0
10:58 pm 22:58 Mostly Cloudy 26 -3.1 22 -5.7 82 82 ESE 10 17 30.04 1017 10 16.0934 0 0
11:58 pm 23:58 Cloudy with Light Snow 24 -4.3 21 -6 88 88 E 13 20 30.02 1017 1 1.60934 0 0

Powered by AerisWeather